| time (UTC) | temp F | wind direction | speed knots | gust knots | rain 1hr in | rain 24hr in | rain mn in | humidity % | barometer mb |
| 20260906195517 | 71 | 293 | 1.7 | 2.6 | 0.00 | 1.41 | 1.41 | 97 | 1019.1 |
| 20260906194516 | 71 | 293 | 1.7 | 4.3 | 0.01 | 1.41 | 1.41 | 97 | 1018.9 |
| 20260906193516 | 71 | 158 | 0.9 | 3.5 | 0.02 | 1.41 | 1.41 | 97 | 1018.6 |
| 20260906192516 | 71 | 0.0 | 1.7 | 0.03 | 1.41 | 1.41 | 97 | 1018.7 | |
| 20260906191519 | 70 | 158 | 2.6 | 5.2 | 0.03 | 1.41 | 1.41 | 97 | 1018.7 |
| 20260906190519 | 71 | 113 | 2.6 | 5.2 | 0.03 | 1.41 | 1.41 | 98 | 1019.1 |
| 20260906185520 | 70 | 113 | 3.5 | 7.0 | 0.04 | 1.41 | 1.41 | 97 | 1018.9 |
| 20260906184525 | 70 | 68 | 3.5 | 6.1 | 0.03 | 1.40 | 1.40 | 97 | 1019.1 |
| 20260906183518 | 70 | 158 | 3.5 | 6.1 | 0.02 | 1.39 | 1.39 | 97 | 1019.1 |
| 20260906182516 | 70 | 180 | 6.1 | 9.6 | 0.02 | 1.38 | 1.38 | 97 | 1018.5 |
| 20260906181516 | 70 | 158 | 6.1 | 10.4 | 0.06 | 1.38 | 1.38 | 97 | 1018.5 |
| 20260906180516 | 70 | 158 | 7.8 | 13.0 | 0.22 | 1.38 | 1.38 | 97 | 1018.1 |
| 20260906175519 | 70 | 158 | 6.1 | 10.4 | 0.52 | 1.37 | 1.37 | 97 | 1018.5 |
| 20260906174537 | 70 | 135 | 6.1 | 9.6 | 0.91 | 1.37 | 1.37 | 97 | 1019.3 |
| 20260906173516 | 70 | 90 | 7.8 | 13.0 | 1.20 | 1.37 | 1.37 | 97 | 1019.1 |
| 20260906172537 | 70 | 90 | 6.1 | 9.6 | 1.27 | 1.36 | 1.36 | 97 | 1018.7 |
| 20260906171516 | 70 | 113 | 7.8 | 12.2 | 1.31 | 1.32 | 1.32 | 97 | 1018.4 |
| 20260906170536 | 71 | 113 | 7.0 | 10.4 | 1.16 | 1.16 | 1.16 | 97 | 1019.0 |
| 20260906165537 | 71 | 113 | 9.6 | 14.8 | 0.85 | 0.85 | 0.85 | 97 | 1018.7 |
| 20260906164516 | 71 | 113 | 7.8 | 12.2 | 0.46 | 0.46 | 0.46 | 96 | 1018.7 |
| 20260906163516 | 71 | 113 | 6.1 | 11.3 | 0.17 | 0.17 | 0.17 | 96 | 1018.7 |
| 20260906162516 | 72 | 135 | 4.3 | 7.8 | 0.09 | 0.09 | 0.09 | 96 | 1018.8 |
| 20260906161517 | 72 | 158 | 5.2 | 7.8 | 0.01 | 0.01 | 0.01 | 96 | 1018.7 |
| 20260906160516 | 72 | 158 | 5.2 | 9.6 | 0.00 | 0.00 | 0.00 | 96 | 1018.6 |
| 20260906155516 | 72 | 135 | 6.1 | 12.2 | 0.00 | 0.00 | 0.00 | 96 | 1018.4 |
| 20260906154516 | 72 | 135 | 6.1 | 10.4 | 0.00 | 0.00 | 0.00 | 95 | 1018.5 |
| 20260906153516 | 72 | 113 | 5.2 | 10.4 | 0.00 | 0.00 | 0.00 | 95 | 1018.3 |
| 20260906152536 | 72 | 113 | 5.2 | 8.7 | 0.00 | 0.00 | 0.00 | 95 | 1018.1 |
| 20260906151516 | 72 | 135 | 3.5 | 7.8 | 0.00 | 0.00 | 0.00 | 95 | 1018.3 |
| 20260906150516 | 72 | 135 | 4.3 | 8.7 | 0.00 | 0.00 | 0.00 | 95 | 1018.6 |
| 20260906145616 | 72 | 135 | 5.2 | 7.8 | 0.00 | 0.00 | 0.00 | 95 | 1018.8 |
| 20260906144516 | 72 | 135 | 4.3 | 7.8 | 0.00 | 0.00 | 0.00 | 95 | 1018.5 |
| 20260906143515 | 72 | 158 | 4.3 | 7.0 | 0.00 | 0.00 | 0.00 | 95 | 1018.4 |
| 20260906142516 | 71 | 135 | 5.2 | 8.7 | 0.00 | 0.00 | 0.00 | 96 | 1018.3 |
| 20260906141515 | 71 | 158 | 5.2 | 8.7 | 0.00 | 0.00 | 0.00 | 96 | 1018.6 |
| 20260906140515 | 71 | 158 | 4.3 | 8.7 | 0.00 | 0.00 | 0.00 | 96 | 1018.3 |
| 20260906135515 | 71 | 158 | 6.1 | 10.4 | 0.00 | 0.00 | 0.00 | 96 | 1018.4 |
| 20260906134516 | 71 | 158 | 5.2 | 7.8 | 0.00 | 0.00 | 0.00 | 96 | 1018.3 |
| 20260906133516 | 71 | 158 | 7.0 | 10.4 | 0.00 | 0.00 | 0.00 | 96 | 1018.1 |
| 20260906132516 | 71 | 158 | 6.1 | 11.3 | 0.00 | 0.00 | 0.00 | 97 | 1018.1 |
| 20260906131515 | 70 | 135 | 6.1 | 8.7 | 0.00 | 0.00 | 0.00 | 97 | 1018.0 |
| 20260906130517 | 70 | 135 | 4.3 | 7.8 | 0.00 | 0.00 | 0.00 | 97 | 1017.9 |
| 20260906125517 | 70 | 135 | 5.2 | 9.6 | 0.00 | 0.00 | 0.00 | 97 | 1017.9 |
| 20260906124517 | 70 | 135 | 4.3 | 7.0 | 0.00 | 0.00 | 0.00 | 98 | 1017.9 |
| 20260906123517 | 69 | 135 | 3.5 | 7.8 | 0.00 | 0.00 | 0.00 | 98 | 1017.9 |
| 20260906122517 | 69 | 135 | 3.5 | 8.7 | 0.00 | 0.00 | 0.00 | 98 | 1018.0 |
| 20260906121538 | 69 | 113 | 3.5 | 6.1 | 0.00 | 0.00 | 0.00 | 98 | 1017.8 |
| 20260906120517 | 69 | 113 | 2.6 | 5.2 | 0.00 | 0.00 | 0.00 | 98 | 1017.7 |
| 20260906115515 | 69 | 113 | 2.6 | 5.2 | 0.00 | 0.00 | 0.00 | 98 | 1017.7 |
| 20260906114518 | 69 | 113 | 3.5 | 6.1 | 0.00 | 0.00 | 0.00 | 98 | 1017.6 |
| 20260906113517 | 69 | 113 | 3.5 | 7.0 | 0.00 | 0.00 | 0.00 | 98 | 1017.7 |
| 20260906112517 | 69 | 113 | 3.5 | 6.1 | 0.00 | 0.00 | 0.00 | 98 | 1017.8 |
| 20260906111517 | 69 | 113 | 2.6 | 6.1 | 0.00 | 0.00 | 0.00 | 98 | 1017.8 |
| 20260906110517 | 69 | 113 | 2.6 | 3.5 | 0.00 | 0.00 | 0.00 | 98 | 1017.8 |
| 20260906105517 | 69 | 135 | 1.7 | 3.5 | 0.00 | 0.00 | 0.00 | 98 | 1017.8 |
| 20260906104518 | 69 | 135 | 1.7 | 3.5 | 0.00 | 0.00 | 0.00 | 98 | 1017.8 |
| 20260906103517 | 69 | 135 | 1.7 | 3.5 | 0.00 | 0.00 | 0.00 | 98 | 1017.8 |
| 20260906102557 | 69 | 158 | 1.7 | 3.5 | 0.00 | 0.00 | 0.00 | 97 | 1017.5 |
| 20260906101517 | 69 | 158 | 2.6 | 3.5 | 0.00 | 0.00 | 0.00 | 98 | 1017.6 |
| 20260906100517 | 69 | 135 | 2.6 | 3.5 | 0.00 | 0.00 | 0.00 | 98 | 1017.5 |
| 20260906095538 | 69 | 135 | 1.7 | 3.5 | 0.00 | 0.00 | 0.00 | 98 | 1017.4 |
| 20260906094517 | 69 | 135 | 1.7 | 3.5 | 0.00 | 0.00 | 0.00 | 97 | 1017.2 |
| 20260906093517 | 70 | 135 | 2.6 | 5.2 | 0.00 | 0.00 | 0.00 | 97 | 1017.1 |
| 20260906092518 | 70 | 158 | 2.6 | 5.2 | 0.00 | 0.00 | 0.00 | 97 | 1017.0 |
| 20260906091517 | 70 | 158 | 3.5 | 5.2 | 0.00 | 0.00 | 0.00 | 97 | 1017.0 |
| 20260906090517 | 70 | 135 | 3.5 | 7.0 | 0.00 | 0.00 | 0.00 | 97 | 1016.9 |
| 20260906085517 | 70 | 158 | 3.5 | 6.1 | 0.00 | 0.00 | 0.00 | 97 | 1016.9 |
| 20260906084517 | 70 | 135 | 3.5 | 7.0 | 0.00 | 0.00 | 0.00 | 97 | 1017.1 |
| 20260906083517 | 71 | 158 | 3.5 | 8.7 | 0.00 | 0.00 | 0.00 | 97 | 1017.0 |
| 20260906082517 | 71 | 135 | 4.3 | 7.8 | 0.00 | 0.00 | 0.00 | 97 | 1017.2 |
| 20260906081518 | 71 | 158 | 3.5 | 6.1 | 0.00 | 0.00 | 0.00 | 97 | 1017.2 |
| 20260906080517 | 71 | 158 | 3.5 | 7.8 | 0.00 | 0.00 | 0.00 | 97 | 1017.1 |
| 20260906075517 | 71 | 135 | 2.6 | 4.3 | 0.00 | 0.00 | 0.00 | 97 | 1016.9 |
| 20260906074516 | 71 | 113 | 2.6 | 4.3 | 0.00 | 0.00 | 0.00 | 97 | 1016.9 |
| 20260906073537 | 71 | 135 | 3.5 | 7.8 | 0.00 | 0.00 | 0.00 | 97 | 1017.0 |
| 20260906072516 | 71 | 135 | 4.3 | 7.8 | 0.00 | 0.00 | 0.00 | 97 | 1017.2 |
| 20260906071536 | 71 | 135 | 4.3 | 8.7 | 0.00 | 0.00 | 0.00 | 97 | 1017.1 |
| 20260906070537 | 71 | 113 | 5.2 | 9.6 | 0.00 | 0.00 | 0.00 | 97 | 1017.1 |
| 20260906065537 | 71 | 113 | 2.6 | 6.1 | 0.00 | 0.00 | 0.00 | 97 | 1017.0 |
| 20260906064556 | 71 | 135 | 3.5 | 7.0 | 0.00 | 0.00 | 0.00 | 97 | 1016.9 |
| 20260906063517 | 71 | 135 | 5.2 | 10.4 | 0.00 | 0.00 | 0.00 | 97 | 1016.8 |
| 20260906062516 | 71 | 135 | 4.3 | 8.7 | 0.00 | 0.00 | 0.00 | 97 | 1017.0 |
| 20260906061516 | 71 | 113 | 4.3 | 7.0 | 0.00 | 0.00 | 0.00 | 97 | 1017.1 |
| 20260906060516 | 71 | 113 | 3.5 | 7.0 | 0.00 | 0.00 | 0.00 | 97 | 1017.2 |
| 20260906055516 | 71 | 113 | 3.5 | 7.0 | 0.00 | 0.00 | 0.00 | 97 | 1017.0 |
| 20260906054517 | 71 | 113 | 3.5 | 7.0 | 0.00 | 0.00 | 0.00 | 97 | 1017.2 |
| 20260906053516 | 71 | 90 | 3.5 | 7.0 | 0.00 | 0.00 | 0.00 | 97 | 1017.2 |
| 20260906052516 | 71 | 113 | 2.6 | 5.2 | 0.00 | 0.00 | 0.00 | 97 | 1017.4 |
| 20260906051516 | 71 | 90 | 4.3 | 7.0 | 0.00 | 0.00 | 0.00 | 97 | 1017.2 |
| 20260906050537 | 71 | 113 | 3.5 | 7.0 | 0.00 | 0.00 | 0.00 | 96 | 1016.9 |
| 20260906045518 | 72 | 113 | 3.5 | 6.1 | 0.00 | 0.00 | 0.00 | 96 | 1017.1 |
| 20260906044517 | 72 | 90 | 3.5 | 7.0 | 0.00 | 0.00 | 0.00 | 96 | 1016.9 |
| 20260906043518 | 72 | 113 | 3.5 | 7.8 | 0.00 | 0.00 | 0.00 | 96 | 1016.9 |
| 20260906042517 | 72 | 90 | 2.6 | 6.1 | 0.00 | 0.00 | 0.00 | 96 | 1016.8 |
| 20260906041558 | 72 | 113 | 4.3 | 7.0 | 0.00 | 0.00 | 0.00 | 96 | 1016.8 |
| 20260906040515 | 72 | 113 | 4.3 | 8.7 | 0.00 | 0.00 | 0.00 | 96 | 1016.7 |
| 20260906035517 | 72 | 113 | 3.5 | 7.0 | 0.00 | 0.00 | 0.00 | 95 | 1016.6 |
| 20260906034517 | 72 | 113 | 3.5 | 6.1 | 0.00 | 0.00 | 0.00 | 95 | 1016.6 |
| 20260906033518 | 72 | 90 | 2.6 | 5.2 | 0.00 | 0.00 | 0.00 | 95 | 1016.6 |
| 20260906032518 | 73 | 113 | 2.6 | 6.1 | 0.00 | 0.00 | 0.00 | 95 | 1016.7 |
| 20260906031517 | 73 | 113 | 4.3 | 7.8 | 0.00 | 0.00 | 0.00 | 94 | 1016.7 |
| 20260906030517 | 73 | 113 | 3.5 | 6.1 | 0.00 | 0.00 | 0.00 | 94 | 1016.8 |
| 20260906025517 | 74 | 113 | 3.5 | 6.1 | 0.00 | 0.00 | 0.00 | 93 | 1016.9 |
| 20260906024517 | 74 | 113 | 3.5 | 7.8 | 0.00 | 0.00 | 0.00 | 93 | 1017.0 |
| 20260906023518 | 74 | 135 | 3.5 | 6.1 | 0.00 | 0.00 | 0.00 | 93 | 1017.0 |
| 20260906022517 | 75 | 135 | 4.3 | 7.0 | 0.00 | 0.00 | 0.00 | 92 | 1016.9 |
| 20260906021517 | 75 | 113 | 4.3 | 7.0 | 0.00 | 0.00 | 0.00 | 92 | 1016.8 |
| 20260906020518 | 75 | 113 | 4.3 | 8.7 | 0.00 | 0.00 | 0.00 | 93 | 1016.7 |
| 20260906015517 | 75 | 135 | 2.6 | 6.1 | 0.00 | 0.00 | 0.00 | 94 | 1016.5 |
| 20260906014517 | 75 | 113 | 1.7 | 3.5 | 0.00 | 0.00 | 0.00 | 94 | 1016.5 |
| 20260906013517 | 75 | 113 | 1.7 | 5.2 | 0.00 | 0.00 | 0.00 | 94 | 1016.3 |
| 20260906012518 | 75 | 113 | 1.7 | 6.1 | 0.00 | 0.00 | 0.00 | 93 | 1016.0 |
| 20260906011517 | 75 | 113 | 2.6 | 3.5 | 0.00 | 0.00 | 0.00 | 93 | 1015.9 |
| 20260906010517 | 76 | 113 | 1.7 | 5.2 | 0.00 | 0.00 | 0.00 | 92 | 1015.8 |
| 20260906005517 | 76 | 113 | 1.7 | 3.5 | 0.00 | 0.00 | 0.00 | 92 | 1015.8 |
| 20260906004517 | 77 | 113 | 1.7 | 2.6 | 0.00 | 0.00 | 0.00 | 91 | 1015.8 |
| 20260906003558 | 77 | 113 | 1.7 | 3.5 | 0.00 | 0.00 | 0.00 | 90 | 1015.8 |
| 20260906002517 | 78 | 113 | 1.7 | 2.6 | 0.00 | 0.00 | 0.00 | 88 | 1015.9 |
| 20260906001517 | 78 | 113 | 1.7 | 3.5 | 0.00 | 0.00 | 0.00 | 87 | 1015.8 |
| 20260906000517 | 78 | 113 | 3.5 | 6.1 | 0.00 | 0.00 | 0.00 | 86 | 1015.8 |
| 20260905235537 | 79 | 113 | 4.3 | 8.7 | 0.00 | 0.00 | 0.00 | 86 | 1015.8 |
| 20260905234517 | 79 | 113 | 4.3 | 7.8 | 0.00 | 0.00 | 0.00 | 86 | 1015.8 |
| 20260905233517 | 80 | 135 | 4.3 | 7.8 | 0.00 | 0.00 | 0.00 | 87 | 1015.8 |
| 20260905232517 | 80 | 135 | 5.2 | 9.6 | 0.00 | 0.00 | 0.00 | 87 | 1015.7 |
| 20260905231517 | 80 | 158 | 5.2 | 8.7 | 0.00 | 0.00 | 0.00 | 88 | 1015.8 |
| 20260905230516 | 80 | 158 | 5.2 | 9.6 | 0.00 | 0.00 | 0.00 | 87 | 1015.6 |
| 20260905225516 | 80 | 135 | 6.1 | 8.7 | 0.00 | 0.00 | 0.00 | 87 | 1015.5 |
| 20260905224517 | 81 | 135 | 6.1 | 9.6 | 0.00 | 0.00 | 0.00 | 86 | 1015.5 |
| 20260905223517 | 81 | 135 | 6.1 | 9.6 | 0.00 | 0.00 | 0.00 | 86 | 1015.4 |
| 20260905222537 | 81 | 135 | 5.2 | 8.7 | 0.00 | 0.00 | 0.00 | 86 | 1015.4 |
| 20260905221516 | 82 | 135 | 3.5 | 7.8 | 0.00 | 0.00 | 0.00 | 84 | 1015.4 |
| 20260905220516 | 82 | 113 | 6.1 | 11.3 | 0.00 | 0.00 | 0.00 | 85 | 1015.3 |
| 20260905215517 | 81 | 113 | 6.1 | 8.7 | 0.00 | 0.00 | 0.00 | 85 | 1015.2 |
| 20260905214537 | 82 | 113 | 7.0 | 10.4 | 0.00 | 0.00 | 0.00 | 84 | 1015.0 |
| 20260905213516 | 82 | 113 | 6.1 | 10.4 | 0.00 | 0.00 | 0.00 | 86 | 1015.2 |
| 20260905212516 | 81 | 113 | 6.1 | 10.4 | 0.00 | 0.00 | 0.00 | 86 | 1015.0 |
| 20260905211536 | 81 | 113 | 6.1 | 9.6 | 0.00 | 0.00 | 0.00 | 86 | 1015.2 |
| 20260905210517 | 80 | 113 | 5.2 | 8.7 | 0.00 | 0.00 | 0.00 | 87 | 1015.4 |
| 20260905205516 | 80 | 113 | 5.2 | 11.3 | 0.00 | 0.00 | 0.00 | 87 | 1015.5 |
| 20260905204516 | 81 | 90 | 5.2 | 9.6 | 0.00 | 0.00 | 0.00 | 86 | 1015.3 |
| 20260905203536 | 81 | 90 | 7.0 | 10.4 | 0.00 | 0.00 | 0.00 | 85 | 1015.5 |
| 20260905202537 | 80 | 90 | 6.1 | 10.4 | 0.00 | 0.00 | 0.00 | 87 | 1015.4 |
| 20260905201516 | 80 | 90 | 7.8 | 12.2 | 0.00 | 0.00 | 0.00 | 86 | 1015.4 |
| 20260905200516 | 80 | 90 | 6.1 | 8.7 | 0.00 | 0.00 | 0.00 | 86 | 1015.5 |